BEESAT

Satellite information

Favourite Embed

Satellite Type and Status

PAYLOADIN ORBIT

Key statistics

Satellite BEESAT at a glance.

Uptime

5926

Days in orbit

Revolutions

≈ 14.6

Per day

Orbit

SSO

Sun Synchronous Orbit

Inclination

98.4

Latest

Satellite identification and parameters

Extended collection of information and parameters for BEESAT.

Object identification

Identified? True

Debris? False

Object name: BEESAT

International designator: 2009-051C

Object number (NORAD): 35933

Object ID (CCSDS): 35933

Country: GERMANY (GER)

Current information (Y/N): Y

RCS size: SMALL

Orbital parameters

Period: 98.544 minutes

Inclination: 98.4071 deg

SMA: 7067.175 km

Apoapsis: 693.685 km

Periapsis: 684.396 km

RAAN: 247.2529 deg

Eccentricy: 0.00065713

Argument of periapsis: 83.9186 deg

Mean anomaly: 276.2763 deg

Mean motion: 14.61281718 rev/day

Mean motion (dot): 0.00001694 rev/day2

B* drag term: 0.00035303778 1/REarth

Two-line elements (TLE)

Creation date: Dec. 14, 2025, 3:07 a.m.

Reference frame: TEME

Reference center: EARTH

Epoch: Dec. 13, 2025, 3:30 p.m. UTC

TLE line 0: 0 BEESAT

TLE line 1: 1 35933U 09051C 25347.64639337 .00001694 00000-0 35304-3 0 9998

TLE line 2: 2 35933 98.4071 247.2529 0006571 83.9186 276.2763 14.61281718862085

Live tracking on map

Real-time ground track for satellite BEESAT.

In-orbit conjunctions

There are no conjunctions computed for BEESAT, at the moment. Check back to stay up to date, as we update our databases every day.

Go to all conjunctions

Associated space launch

Oceansat-2 is an earth observation and oceanography satellite operated by ISRO.

BEESAT was lifted into orbit during the mission ‘PSLV | Oceansat-2’, on board a PSLV space rocket.

The launch took place on Sept. 23, 2009, 6:21 a.m. from Satish Dhawan Space Centre First Launch Pad.

For more information about the launch, click the button.

Launch to space PSLV | Oceansat-2
PSLV | Oceansat-2

Agency: N/A

Status: Launch Successful

Launch date: Sept. 23, 2009, 6:21 a.m. UTC

Rocket: PSLV

Launch pad: Satish Dhawan Space Centre First Launch Pad

Location: Satish Dhawan Space Centre, India

...

Latest news about this satellite

There are no fresh news available about this satellite. Check back as we update our databases every day.


Newsletter sign-up

Weekly statistics, charts and insights to help you stay on top of the space industry.